Pagina principală
METAR-TAF:

METAR-TAF

Aeroporturi :

Seneca, Oregon, Statele Unite ale Americii

Latitudine: 44-08-18N, longitudine: 118-58-54W, elevație: 1422 m

Observații meteo curente

Raportul a fost făcut în urmă cu 34 de minute, la 03:55 UTC
Vânt 3 kt de la Sud-vest
Temperatură 29°C
Umiditate 16%
Presiune 1017 hPa
Vizibilitate: 16.1 km
Cer senin

METAR: KGCD 140355Z AUTO 22003KT 10SM CLR 29/01 A3004 RMK AO2 T02930014

Ora: 21:29 (04:29 UTC)


TAF: lipsă

Observații și prognoze meteo pentru peste 4.000 de aeroporturi (rapoarte METAR și TAF).

Stațiile disponibile sunt reprezentate pe hartă prin puncte galbene și roșii.

Țineți indicatorul mouse-ului pe punctul dorit pentru a vedea denumirea stației.

Apoi, faceți clic pentru a vedea observațiile și prognozele meteorologice.

Pentru a schimba harta: Pentru mărire, faceți clic pe butoanele verzi cu cruce neagră; pentru micșorare, pe butonul verde cu o liniuță; pentru hărți învecinate, pe săgețile verzi.


METAR-TAF: